Voltar ao catálogo

KUIPER-00549

AtivoComunicaçõesVLEO
NORAD 69616·PAYLOAD·🇺🇸 United States

Lançado Jun 17, 2026 de Guiana Space Centre

Loading…

Próximas Passagens (próximas 24 horas)

TLE

AtualizadoSource: CelesTrak SupGP

Época: Sep 14, 2026, 21:47 UTC

1 69616C 26140AA  26257.90806713 -.01155500  00000+0 -64740-1 0  2574
2 69616  51.8917 325.8874 0005227 228.9383  55.9906 15.14022730    19

Acompanhe KUIPER-00549 em tempo real com AllMySat

Download on the App Store